Change the Weather History Date:

Monday, July 15, 2013

  Actual Average Record
Temperature  
Mean Temperature 64 °F 71 °F  
Max Temperature 71 °F 85 °F 97 °F (1925)
Min Temperature 57 °F 57 °F 46 °F (1907)
Degree Days  
Heating Degree Days 1 0  
Month to date heating degree days 3 3  
Since 1 June heating degree days 28 82  
Since 1 July heating degree days 3 3  
Cooling Degree Days 0 6  
Month to date cooling degree days 117 88  
Year to date cooling degree days 321 181  
Since 1 June cooling degree days 299 171  
Growing Degree Days 14 (Base 50)    
Moisture  
Dew Point 57 °F    
Average Humidity 69    
Maximum Humidity 93    
Minimum Humidity 44    
Precipitation  
Precipitation 0.14 in 0.09 in 1.15 in (1912)
Month to date precipitation 2.28 1.16  
Year to date precipitation 5.61 8.77  
Snow  
Snow 0.00 in 0.00 in 0.00 in (2002)
Month to date snowfall 0.0 0.0  
Since 1 June snowfall 0.0 0.0  
Since 1 July snowfall 0.0 0.0  
Snow Depth 0.00 in    
Sea Level Pressure  
Sea Level Pressure 30.18 in    
Wind  
Wind Speed 8 mph (SE)    
Max Wind Speed 18 mph    
Max Gust Speed 22 mph    
Visibility 7 miles    
Events Fog , Rain    
T = Trace of Precipitation, MM = Missing Value Source: NWS Daily Summary

Daily Weather History Graph

Daily Weather History Graph

Search for Another Location

Airport or City:

Trip Planner

Search our weather history database for the weather conditions in past years. The results will help you decide how hot, cold, wet, or windy it might be!

Date:

Astronomy

Jul. 15, 2013 Rise Set
Actual Time 5:46 AM MDT 8:22 PM MDT
Civil Twilight 5:15 AM MDT 8:53 PM MDT
Nautical Twilight 4:36 AM MDT 9:32 PM MDT
Astronomical Twilight 3:53 AM MDT 10:15 PM MDT
Moon 1:03 PM MDT (7/15) No Moon Set
Length of Visible Light 15h 38m
Length of Day
14h 36m
Waxing Crescent, 46% of the Moon is Illuminated
Jul 15
Waxing Crescent
Jul 15
First Quarter
Jul 22
Full
Jul 29
Last Quarter
Aug 6
New

Hourly Weather History & Observations

Time (MDT) Temp. Dew Point Humidity Pressure Visibility Wind Dir Wind Speed Gust Speed Precip Events Conditions
12:54 AM 64.0 °F 60.1 °F 87% 30.04 in 10.0 mi East 6.9 mph - 0.00 in   Overcast
1:19 AM 64.4 °F 60.8 °F 88% 30.30 in 10.0 mi East 6.9 mph - N/A   Overcast
1:54 AM 64.0 °F 60.1 °F 87% 30.04 in 10.0 mi Calm Calm - N/A   Overcast
2:12 AM 64.4 °F 60.8 °F 88% 30.30 in 10.0 mi East 3.5 mph - N/A   Overcast
2:31 AM 62.6 °F 60.8 °F 94% 30.29 in 9.0 mi ESE 3.5 mph - N/A   Overcast
2:41 AM 62.6 °F 60.8 °F 94% 30.29 in 9.0 mi SE 5.8 mph - N/A   Overcast
2:54 AM 63.0 °F 60.1 °F 90% 30.03 in 9.0 mi Calm Calm - N/A   Overcast
3:02 AM 62.6 °F 60.8 °F 94% 30.28 in 9.0 mi Calm Calm - N/A   Overcast
3:54 AM 63.0 °F 60.1 °F 90% 30.03 in 10.0 mi East 4.6 mph - N/A   Overcast
4:54 AM 63.0 °F 60.1 °F 90% 30.03 in 8.0 mi East 5.8 mph - 0.00 in   Light Drizzle
5:00 AM 62.6 °F 60.8 °F 94% 30.29 in 8.0 mi East 4.6 mph - 0.00 in   Light Drizzle
5:11 AM 62.6 °F 60.8 °F 94% 30.29 in 8.0 mi ESE 5.8 mph - 0.00 in   Light Drizzle
5:36 AM 62.6 °F 60.8 °F 94% 30.29 in 3.0 mi ESE 8.1 mph - 0.00 in   Overcast
5:43 AM 62.6 °F 60.8 °F 94% 30.29 in 3.0 mi ESE 8.1 mph - 0.01 in   Overcast
5:54 AM 62.1 °F 60.1 °F 93% 30.04 in 3.0 mi ESE 10.4 mph - 0.05 in   Light Drizzle
6:10 AM 62.6 °F 60.8 °F 94% 30.30 in 6.0 mi East 9.2 mph - 0.00 in   Light Drizzle
6:54 AM 62.1 °F 60.1 °F 93% 30.05 in 8.0 mi SE 10.4 mph - 0.01 in   Light Drizzle
7:42 AM 60.8 °F 57.2 °F 88% 30.32 in 2.5 mi SE 13.8 mph 20.7 mph 0.00 in Rain Light Rain
7:54 AM 60.1 °F 59.0 °F 96% 30.12 in 1.0 mi SE 15.0 mph - 0.00 in Rain Light Rain
8:38 AM 59.0 °F 59.0 °F 100% 30.33 in 0.5 mi SE 15.0 mph - 0.04 in Fog , Rain Light Rain
8:54 AM 59.0 °F 57.9 °F 96% 30.13 in 0.5 mi SE 13.8 mph - 0.06 in Fog , Rain Light Rain
9:40 AM 59.0 °F 57.2 °F 94% 30.34 in 3.0 mi SSE 13.8 mph - 0.01 in Rain Light Rain
9:54 AM 59.0 °F 57.9 °F 96% 30.17 in 5.0 mi SSE 10.4 mph - 0.01 in   Overcast
10:10 AM 57.2 °F 57.2 °F 100% 30.34 in 6.0 mi SSE 15.0 mph - N/A   Overcast
10:54 AM 59.0 °F 57.9 °F 96% 30.16 in 5.0 mi SSE 11.5 mph - N/A   Overcast
11:20 AM 59.0 °F 57.2 °F 94% 30.35 in 1.8 mi SE 11.5 mph - 0.00 in Rain Light Rain
11:54 AM 57.9 °F 57.0 °F 97% 30.17 in 1.2 mi SSE 11.5 mph - 0.01 in Rain Light Rain
12:28 PM 59.0 °F 59.0 °F 100% 30.34 in 3.0 mi SSE 8.1 mph - 0.00 in Rain Light Rain
12:54 PM 62.1 °F 61.0 °F 96% 30.14 in 6.0 mi South 8.1 mph - 0.00 in   Overcast
1:54 PM 64.0 °F 59.0 °F 84% 30.11 in 10.0 mi SW 5.8 mph - N/A   Mostly Cloudy
2:54 PM 64.9 °F 55.9 °F 73% 30.10 in 10.0 mi SSW 4.6 mph - N/A   Mostly Cloudy
4:02 PM 69.8 °F 53.6 °F 56% 30.29 in 10.0 mi South 4.6 mph - N/A   Mostly Cloudy
4:54 PM 70.0 °F 52.0 °F 53% 30.04 in 10.0 mi SW 6.9 mph - N/A   Mostly Cloudy
5:54 PM 69.1 °F 50.0 °F 51% 30.04 in 10.0 mi SSE 9.2 mph - N/A   Scattered Clouds
6:54 PM 69.1 °F 46.9 °F 45% 30.04 in 10.0 mi SE 12.7 mph - N/A   Scattered Clouds
7:54 PM 66.0 °F 45.0 °F 47% 30.07 in 10.0 mi SE 11.5 mph - N/A   Scattered Clouds
8:54 PM 63.0 °F 44.1 °F 50% 30.10 in 10.0 mi ESE 10.4 mph - N/A   Scattered Clouds
9:54 PM 61.0 °F 45.0 °F 56% 30.14 in 10.0 mi SE 10.4 mph - N/A   Partly Cloudy
10:54 PM 57.0 °F 48.0 °F 72% 30.18 in 10.0 mi WSW 4.6 mph - N/A   Partly Cloudy
11:54 PM 57.9 °F 46.9 °F 67% 30.17 in 10.0 mi South 6.9 mph - N/A   Partly Cloudy